owner,sensor,date,latitude,longitude,vertical_datum,wind_speed,wind_to_direction,wind_speed_of_gust,qcFlag 
WAVCIS,ioos:station:WAVCIS:CSI15:1,2010-04-01T00:00:00Z,28.8332,-90.8320,10.0,3.669,137.0,,'11111222,11111222,99999999' 
WAVCIS,ioos:station:WAVCIS:CSI15:1,2010-04-01T01:00:00Z,28.8332,-90.8320,10.0,4.028,148.0,,'11111222,11111222,99999999' 
WAVCIS,ioos:station:WAVCIS:CSI15:1,2010-04-01T02:00:00Z,28.8332,-90.8320,10.0,5.108,132.0,,'11111222,11111222,99999999' 
WAVCIS,ioos:station:WAVCIS:CSI15:1,2010-04-01T03:00:00Z,28.8332,-90.8320,10.0,5.637,124.0,,'11111222,11111222,99999999' 
WAVCIS,ioos:station:WAVCIS:CSI15:1,2010-04-01T04:00:00Z,28.8332,-90.8320,10.0,6.533,126.0,,'11111222,11111222,99999999' 
WAVCIS,ioos:station:WAVCIS:CSI15:1,2010-04-01T05:00:00Z,28.8332,-90.8320,10.0,6.995,132.0,,'11111222,11111222,99999999' 
WAVCIS,ioos:station:WAVCIS:CSI15:1,2010-04-01T06:00:00Z,28.8332,-90.8320,10.0,7.36,133.0,,'11111222,11111222,99999999' 
WAVCIS,ioos:station:WAVCIS:CSI15:1,2010-04-01T07:00:00Z,28.8332,-90.8320,10.0,7.95,132.0,,'11111222,11111222,99999999' 
WAVCIS,ioos:station:WAVCIS:CSI15:1,2010-04-01T08:00:00Z,28.8332,-90.8320,10.0,6.203,136.0,,'11111222,11111222,99999999' 
WAVCIS,ioos:station:WAVCIS:CSI15:1,2010-04-01T09:00:00Z,28.8332,-90.8320,10.0,5.272,131.0,,'11111222,11111222,99999999' 
WAVCIS,ioos:station:WAVCIS:CSI15:1,2010-04-01T10:00:00Z,28.8332,-90.8320,10.0,4.764,131.0,,'11111222,11111222,99999999' 
WAVCIS,ioos:station:WAVCIS:CSI15:1,2010-04-01T11:00:00Z,28.8332,-90.8320,10.0,4.599,132.0,,'11111222,11111222,99999999' 
WAVCIS,ioos:station:WAVCIS:CSI15:1,2010-04-01T12:00:00Z,28.8332,-90.8320,10.0,3.503,122.0,,'11111222,11111222,99999999' 
WAVCIS,ioos:station:WAVCIS:CSI15:1,2010-04-01T13:00:00Z,28.8332,-90.8320,10.0,3.446,115.0,,'11111222,11111222,99999999' 
WAVCIS,ioos:station:WAVCIS:CSI15:1,2010-04-01T14:00:00Z,28.8332,-90.8320,10.0,3.865,124.0,,'11111222,11111222,99999999' 
WAVCIS,ioos:station:WAVCIS:CSI15:1,2010-04-01T15:00:00Z,28.8332,-90.8320,10.0,5.136,111.0,,'11111222,11111222,99999999' 
WAVCIS,ioos:station:WAVCIS:CSI15:1,2010-04-01T16:00:00Z,28.8332,-90.8320,10.0,6.294,107.0,,'11111222,11111222,99999999' 
WAVCIS,ioos:station:WAVCIS:CSI15:1,2010-04-01T17:00:00Z,28.8332,-90.8320,10.0,4.94,110.0,,'11111222,11111222,99999999' 
WAVCIS,ioos:station:WAVCIS:CSI15:1,2010-04-01T18:00:00Z,28.8332,-90.8320,10.0,3.867,113.0,,'11111222,11111222,99999999' 
WAVCIS,ioos:station:WAVCIS:CSI15:1,2010-04-01T19:00:00Z,28.8332,-90.8320,10.0,3.589,110.0,,'11111222,11111222,99999999' 
WAVCIS,ioos:station:WAVCIS:CSI15:1,2010-04-01T20:00:00Z,28.8332,-90.8320,10.0,4.711,101.0,,'11111222,11111222,99999999' 
WAVCIS,ioos:station:WAVCIS:CSI15:1,2010-04-01T21:00:00Z,28.8332,-90.8320,10.0,4.302,108.0,,'11111222,11111222,99999999' 
WAVCIS,ioos:station:WAVCIS:CSI15:1,2010-04-01T22:00:00Z,28.8332,-90.8320,10.0,6.104,103.0,,'11111222,11111222,99999999' 
WAVCIS,ioos:station:WAVCIS:CSI15:1,2010-04-01T23:00:00Z,28.8332,-90.8320,10.0,5.698,103.0,,'11111222,11111222,99999999' 
WAVCIS,ioos:station:WAVCIS:CSI15:1,2010-04-02T00:00:00Z,28.8332,-90.8320,10.0,5.472,99.0,,'11111222,11111222,99999999' 
WAVCIS,ioos:station:WAVCIS:CSI15:1,2010-04-02T01:00:00Z,28.8332,-90.8320,10.0,7.18,93.0,,'11111222,11111222,99999999' 
WAVCIS,ioos:station:WAVCIS:CSI15:1,2010-04-02T02:00:00Z,28.8332,-90.8320,10.0,8.59,97.0,,'11111222,11111222,99999999' 
WAVCIS,ioos:station:WAVCIS:CSI15:1,2010-04-02T03:00:00Z,28.8332,-90.8320,10.0,10.3,100.0,,'11111222,11111222,99999999' 
WAVCIS,ioos:station:WAVCIS:CSI15:1,2010-04-02T04:00:00Z,28.8332,-90.8320,10.0,7.58,107.0,,'11111222,11111222,99999999' 
WAVCIS,ioos:station:WAVCIS:CSI15:1,2010-04-02T05:00:00Z,28.8332,-90.8320,10.0,8.75,100.0,,'11111222,11111222,99999999' 
WAVCIS,ioos:station:WAVCIS:CSI15:1,2010-04-02T06:00:00Z,28.8332,-90.8320,10.0,8.9,102.0,,'11111222,11111222,99999999' 
WAVCIS,ioos:station:WAVCIS:CSI15:1,2010-04-02T07:00:00Z,28.8332,-90.8320,10.0,6.848,104.0,,'11111222,11111222,99999999' 
WAVCIS,ioos:station:WAVCIS:CSI15:1,2010-04-02T08:00:00Z,28.8332,-90.8320,10.0,7.64,104.0,,'11111222,11111222,99999999' 
WAVCIS,ioos:station:WAVCIS:CSI15:1,2010-04-02T09:00:00Z,28.8332,-90.8320,10.0,8.73,104.0,,'11111222,11111222,99999999' 
WAVCIS,ioos:station:WAVCIS:CSI15:1,2010-04-02T10:00:00Z,28.8332,-90.8320,10.0,9.69,106.0,,'11111222,11111222,99999999' 
WAVCIS,ioos:station:WAVCIS:CSI15:1,2010-04-02T11:00:00Z,28.8332,-90.8320,10.0,9.2,121.0,,'11111222,11111222,99999999' 
WAVCIS,ioos:station:WAVCIS:CSI15:1,2010-04-02T12:00:00Z,28.8332,-90.8320,10.0,8.7,113.0,,'11111222,11111222,99999999' 
WAVCIS,ioos:station:WAVCIS:CSI15:1,2010-04-02T13:00:00Z,28.8332,-90.8320,10.0,9.46,116.0,,'11111222,11111222,99999999' 
WAVCIS,ioos:station:WAVCIS:CSI15:1,2010-04-02T14:00:00Z,28.8332,-90.8320,10.0,8.14,122.0,,'11111222,11111222,99999999' 
WAVCIS,ioos:station:WAVCIS:CSI15:1,2010-04-02T15:00:00Z,28.8332,-90.8320,10.0,8.77,120.0,,'11111222,11111222,99999999' 
WAVCIS,ioos:station:WAVCIS:CSI15:1,2010-04-02T16:00:00Z,28.8332,-90.8320,10.0,7.76,111.0,,'11111222,11111222,99999999' 
WAVCIS,ioos:station:WAVCIS:CSI15:1,2010-04-02T17:00:00Z,28.8332,-90.8320,10.0,7.31,97.0,,'11111222,11111222,99999999' 
WAVCIS,ioos:station:WAVCIS:CSI15:1,2010-04-02T18:00:00Z,28.8332,-90.8320,10.0,7.56,95.0,,'11111222,11111222,99999999' 
WAVCIS,ioos:station:WAVCIS:CSI15:1,2010-04-02T19:00:00Z,28.8332,-90.8320,10.0,8.22,86.0,,'11111222,11111222,99999999' 
WAVCIS,ioos:station:WAVCIS:CSI15:1,2010-04-02T20:00:00Z,28.8332,-90.8320,10.0,8.14,90.0,,'11111222,11111222,99999999' 
WAVCIS,ioos:station:WAVCIS:CSI15:1,2010-04-02T21:00:00Z,28.8332,-90.8320,10.0,8.85,87.0,,'11111222,11111222,99999999' 
WAVCIS,ioos:station:WAVCIS:CSI15:1,2010-04-02T22:00:00Z,28.8332,-90.8320,10.0,9.16,94.0,,'11111222,11111222,99999999' 
WAVCIS,ioos:station:WAVCIS:CSI15:1,2010-04-02T23:00:00Z,28.8332,-90.8320,10.0,9.5,92.0,,'11111222,11111222,99999999' 
WAVCIS,ioos:station:WAVCIS:CSI15:1,2010-04-03T00:00:00Z,28.8332,-90.8320,10.0,8.97,92.0,,'11111222,11111222,99999999' 
WAVCIS,ioos:station:WAVCIS:CSI15:1,2010-04-03T01:00:00Z,28.8332,-90.8320,10.0,8.41,92.0,,'11111222,11111222,99999999' 
WAVCIS,ioos:station:WAVCIS:CSI15:1,2010-04-03T02:00:00Z,28.8332,-90.8320,10.0,7.82,102.0,,'11111222,11111222,99999999' 
WAVCIS,ioos:station:WAVCIS:CSI15:1,2010-04-03T03:00:00Z,28.8332,-90.8320,10.0,6.982,103.0,,'11111222,11111222,99999999' 
WAVCIS,ioos:station:WAVCIS:CSI15:1,2010-04-03T04:00:00Z,28.8332,-90.8320,10.0,8.83,107.0,,'11111222,11111222,99999999' 
WAVCIS,ioos:station:WAVCIS:CSI15:1,2010-04-03T05:00:00Z,28.8332,-90.8320,10.0,7.25,120.0,,'11111222,11111222,99999999' 
WAVCIS,ioos:station:WAVCIS:CSI15:1,2010-04-03T06:00:00Z,28.8332,-90.8320,10.0,7.96,123.0,,'11111222,11111222,99999999' 
WAVCIS,ioos:station:WAVCIS:CSI15:1,2010-04-03T07:00:00Z,28.8332,-90.8320,10.0,8.75,118.0,,'11111222,11111222,99999999' 
WAVCIS,ioos:station:WAVCIS:CSI15:1,2010-04-03T08:00:00Z,28.8332,-90.8320,10.0,9.06,121.0,,'11111222,11111222,99999999' 
WAVCIS,ioos:station:WAVCIS:CSI15:1,2010-04-03T09:00:00Z,28.8332,-90.8320,10.0,7.88,126.0,,'11111222,11111222,99999999' 
WAVCIS,ioos:station:WAVCIS:CSI15:1,2010-04-03T10:00:00Z,28.8332,-90.8320,10.0,7.84,125.0,,'11111222,11111222,99999999' 
WAVCIS,ioos:station:WAVCIS:CSI15:1,2010-04-03T11:00:00Z,28.8332,-90.8320,10.0,8.36,127.0,,'11111222,11111222,99999999' 
WAVCIS,ioos:station:WAVCIS:CSI15:1,2010-04-03T12:00:00Z,28.8332,-90.8320,10.0,8.35,130.0,,'11111222,11111222,99999999' 
WAVCIS,ioos:station:WAVCIS:CSI15:1,2010-04-03T13:00:00Z,28.8332,-90.8320,10.0,7.32,132.0,,'11111222,11111222,99999999' 
WAVCIS,ioos:station:WAVCIS:CSI15:1,2010-04-03T14:00:00Z,28.8332,-90.8320,10.0,5.838,140.0,,'11111222,11111222,99999999' 
WAVCIS,ioos:station:WAVCIS:CSI15:1,2010-04-03T15:00:00Z,28.8332,-90.8320,10.0,5.064,146.0,,'11111222,11111222,99999999' 
WAVCIS,ioos:station:WAVCIS:CSI15:1,2010-04-03T16:00:00Z,28.8332,-90.8320,10.0,6.309,136.0,,'11111222,11111222,99999999' 
WAVCIS,ioos:station:WAVCIS:CSI15:1,2010-04-03T17:00:00Z,28.8332,-90.8320,10.0,4.549,127.0,,'11111222,11111222,99999999' 
WAVCIS,ioos:station:WAVCIS:CSI15:1,2010-04-03T18:00:00Z,28.8332,-90.8320,10.0,0.24,231.0,,'11111222,11111222,99999999' 
WAVCIS,ioos:station:WAVCIS:CSI15:1,2010-04-03T19:00:00Z,28.8332,-90.8320,10.0,0.005,149.0,,'11111222,11111222,99999999' 
WAVCIS,ioos:station:WAVCIS:CSI15:1,2010-04-03T20:00:00Z,28.8332,-90.8320,10.0,1.346,82.0,,'11111222,11111222,99999999' 
WAVCIS,ioos:station:WAVCIS:CSI15:1,2010-04-03T21:00:00Z,28.8332,-90.8320,10.0,1.754,82.0,,'11111222,11111222,99999999' 
WAVCIS,ioos:station:WAVCIS:CSI15:1,2010-04-03T22:00:00Z,28.8332,-90.8320,10.0,2.967,93.0,,'11111222,11111222,99999999' 
WAVCIS,ioos:station:WAVCIS:CSI15:1,2010-04-03T23:00:00Z,28.8332,-90.8320,10.0,3.586,85.0,,'11111222,11111222,99999999' 
WAVCIS,ioos:station:WAVCIS:CSI15:1,2010-04-04T00:00:00Z,28.8332,-90.8320,10.0,4.376,99.0,,'11111222,11111222,99999999' 
WAVCIS,ioos:station:WAVCIS:CSI15:1,2010-04-04T01:00:00Z,28.8332,-90.8320,10.0,6.015,103.0,,'11111222,11111222,99999999' 
WAVCIS,ioos:station:WAVCIS:CSI15:1,2010-04-04T02:00:00Z,28.8332,-90.8320,10.0,5.735,106.0,,'11111222,11111222,99999999' 
WAVCIS,ioos:station:WAVCIS:CSI15:1,2010-04-04T03:00:00Z,28.8332,-90.8320,10.0,5.846,102.0,,'11111222,11111222,99999999' 
WAVCIS,ioos:station:WAVCIS:CSI15:1,2010-04-04T04:00:00Z,28.8332,-90.8320,10.0,6.752,107.0,,'11111222,11111222,99999999' 
WAVCIS,ioos:station:WAVCIS:CSI15:1,2010-04-04T05:00:00Z,28.8332,-90.8320,10.0,7.23,117.0,,'11111222,11111222,99999999' 
WAVCIS,ioos:station:WAVCIS:CSI15:1,2010-04-04T06:00:00Z,28.8332,-90.8320,10.0,7.19,117.0,,'11111222,11111222,99999999' 
WAVCIS,ioos:station:WAVCIS:CSI15:1,2010-04-04T07:00:00Z,28.8332,-90.8320,10.0,7.56,118.0,,'11111222,11111222,99999999' 
WAVCIS,ioos:station:WAVCIS:CSI15:1,2010-04-04T08:00:00Z,28.8332,-90.8320,10.0,7.24,119.0,,'11111222,11111222,99999999' 
WAVCIS,ioos:station:WAVCIS:CSI15:1,2010-04-04T09:00:00Z,28.8332,-90.8320,10.0,7.74,123.0,,'11111222,11111222,99999999' 
WAVCIS,ioos:station:WAVCIS:CSI15:1,2010-04-04T10:00:00Z,28.8332,-90.8320,10.0,5.965,117.0,,'11111222,11111222,99999999' 
WAVCIS,ioos:station:WAVCIS:CSI15:1,2010-04-04T11:00:00Z,28.8332,-90.8320,10.0,5.939,104.0,,'11111222,11111222,99999999' 
WAVCIS,ioos:station:WAVCIS:CSI15:1,2010-04-04T12:00:00Z,28.8332,-90.8320,10.0,5.786,97.0,,'11111222,11111222,99999999' 
WAVCIS,ioos:station:WAVCIS:CSI15:1,2010-04-04T13:00:00Z,28.8332,-90.8320,10.0,4.965,82.0,,'11111222,11111222,99999999' 
WAVCIS,ioos:station:WAVCIS:CSI15:1,2010-04-04T14:00:00Z,28.8332,-90.8320,10.0,5.839,68.0,,'11111222,11111222,99999999' 
WAVCIS,ioos:station:WAVCIS:CSI15:1,2010-04-04T15:00:00Z,28.8332,-90.8320,10.0,7.57,79.0,,'11111222,11111222,99999999' 
WAVCIS,ioos:station:WAVCIS:CSI15:1,2010-04-04T16:00:00Z,28.8332,-90.8320,10.0,7.45,88.0,,'11111222,11111222,99999999' 
WAVCIS,ioos:station:WAVCIS:CSI15:1,2010-04-04T17:00:00Z,28.8332,-90.8320,10.0,6.783,102.0,,'11111222,11111222,99999999' 
WAVCIS,ioos:station:WAVCIS:CSI15:1,2010-04-04T18:00:00Z,28.8332,-90.8320,10.0,5.017,94.0,,'11111222,11111222,99999999' 
WAVCIS,ioos:station:WAVCIS:CSI15:1,2010-04-04T19:00:00Z,28.8332,-90.8320,10.0,3.49,78.0,,'11111222,11111222,99999999' 
WAVCIS,ioos:station:WAVCIS:CSI15:1,2010-04-04T20:00:00Z,28.8332,-90.8320,10.0,4.586,61.0,,'11111222,11111222,99999999' 
WAVCIS,ioos:station:WAVCIS:CSI15:1,2010-04-04T21:00:00Z,28.8332,-90.8320,10.0,5.506,74.0,,'11111222,11111222,99999999' 
WAVCIS,ioos:station:WAVCIS:CSI15:1,2010-04-04T22:00:00Z,28.8332,-90.8320,10.0,5.56,71.0,,'11111222,11111222,99999999' 
WAVCIS,ioos:station:WAVCIS:CSI15:1,2010-04-04T23:00:00Z,28.8332,-90.8320,10.0,5.69,78.0,,'11111222,11111222,99999999' 
WAVCIS,ioos:station:WAVCIS:CSI15:1,2010-04-05T00:00:00Z,28.8332,-90.8320,10.0,6.106,86.0,,'11111222,11111222,99999999' 
WAVCIS,ioos:station:WAVCIS:CSI15:1,2010-04-05T01:00:00Z,28.8332,-90.8320,10.0,7.09,81.0,,'11111222,11111222,99999999' 
WAVCIS,ioos:station:WAVCIS:CSI15:1,2010-04-05T02:00:00Z,28.8332,-90.8320,10.0,8.0,92.0,,'11111222,11111222,99999999' 
WAVCIS,ioos:station:WAVCIS:CSI15:1,2010-04-05T03:00:00Z,28.8332,-90.8320,10.0,7.81,94.0,,'11111222,11111222,99999999' 
WAVCIS,ioos:station:WAVCIS:CSI15:1,2010-04-05T04:00:00Z,28.8332,-90.8320,10.0,7.19,100.0,,'11111222,11111222,99999999' 
WAVCIS,ioos:station:WAVCIS:CSI15:1,2010-04-05T05:00:00Z,28.8332,-90.8320,10.0,6.318,104.0,,'11111222,11111222,99999999' 
WAVCIS,ioos:station:WAVCIS:CSI15:1,2010-04-05T06:00:00Z,28.8332,-90.8320,10.0,6.915,113.0,,'11111222,11111222,99999999' 
WAVCIS,ioos:station:WAVCIS:CSI15:1,2010-04-05T07:00:00Z,28.8332,-90.8320,10.0,9.09,116.0,,'11111222,11111222,99999999' 
WAVCIS,ioos:station:WAVCIS:CSI15:1,2010-04-05T08:00:00Z,28.8332,-90.8320,10.0,9.2,113.0,,'11111222,11111222,99999999' 
WAVCIS,ioos:station:WAVCIS:CSI15:1,2010-04-05T09:00:00Z,28.8332,-90.8320,10.0,6.849,108.0,,'11111222,11111222,99999999' 
WAVCIS,ioos:station:WAVCIS:CSI15:1,2010-04-05T10:00:00Z,28.8332,-90.8320,10.0,6.552,111.0,,'11111222,11111222,99999999' 
WAVCIS,ioos:station:WAVCIS:CSI15:1,2010-04-05T11:00:00Z,28.8332,-90.8320,10.0,4.427,96.0,,'11111222,11111222,99999999' 
WAVCIS,ioos:station:WAVCIS:CSI15:1,2010-04-05T12:00:00Z,28.8332,-90.8320,10.0,5.301,94.0,,'11111222,11111222,99999999' 
WAVCIS,ioos:station:WAVCIS:CSI15:1,2010-04-05T13:00:00Z,28.8332,-90.8320,10.0,5.174,90.0,,'11111222,11111222,99999999' 
WAVCIS,ioos:station:WAVCIS:CSI15:1,2010-04-05T14:00:00Z,28.8332,-90.8320,10.0,4.921,93.0,,'11111222,11111222,99999999' 
WAVCIS,ioos:station:WAVCIS:CSI15:1,2010-04-05T15:00:00Z,28.8332,-90.8320,10.0,5.366,93.0,,'11111222,11111222,99999999' 
WAVCIS,ioos:station:WAVCIS:CSI15:1,2010-04-05T16:00:00Z,28.8332,-90.8320,10.0,5.624,87.0,,'11111222,11111222,99999999' 
WAVCIS,ioos:station:WAVCIS:CSI15:1,2010-04-05T17:00:00Z,28.8332,-90.8320,10.0,4.946,89.0,,'11111222,11111222,99999999' 
WAVCIS,ioos:station:WAVCIS:CSI15:1,2010-04-05T18:00:00Z,28.8332,-90.8320,10.0,4.435,83.0,,'11111222,11111222,99999999' 
WAVCIS,ioos:station:WAVCIS:CSI15:1,2010-04-05T19:00:00Z,28.8332,-90.8320,10.0,4.878,80.0,,'11111222,11111222,99999999' 
WAVCIS,ioos:station:WAVCIS:CSI15:1,2010-04-05T20:00:00Z,28.8332,-90.8320,10.0,5.942,75.0,,'11111222,11111222,99999999' 
WAVCIS,ioos:station:WAVCIS:CSI15:1,2010-04-05T21:00:00Z,28.8332,-90.8320,10.0,5.535,70.0,,'11111222,11111222,99999999' 
WAVCIS,ioos:station:WAVCIS:CSI15:1,2010-04-05T22:00:00Z,28.8332,-90.8320,10.0,5.497,75.0,,'11111222,11111222,99999999' 
WAVCIS,ioos:station:WAVCIS:CSI15:1,2010-04-05T23:00:00Z,28.8332,-90.8320,10.0,6.199,82.0,,'11111222,11111222,99999999' 
WAVCIS,ioos:station:WAVCIS:CSI15:1,2010-04-06T00:00:00Z,28.8332,-90.8320,10.0,6.077,80.0,,'11111222,11111222,99999999' 
WAVCIS,ioos:station:WAVCIS:CSI15:1,2010-04-06T01:00:00Z,28.8332,-90.8320,10.0,6.238,86.0,,'11111222,11111222,99999999' 
WAVCIS,ioos:station:WAVCIS:CSI15:1,2010-04-06T02:00:00Z,28.8332,-90.8320,10.0,6.493,90.0,,'11111222,11111222,99999999' 
WAVCIS,ioos:station:WAVCIS:CSI15:1,2010-04-06T03:00:00Z,28.8332,-90.8320,10.0,6.429,96.0,,'11111222,11111222,99999999' 
WAVCIS,ioos:station:WAVCIS:CSI15:1,2010-04-06T04:00:00Z,28.8332,-90.8320,10.0,6.493,98.0,,'11111222,11111222,99999999' 
WAVCIS,ioos:station:WAVCIS:CSI15:1,2010-04-06T05:00:00Z,28.8332,-90.8320,10.0,7.22,100.0,,'11111222,11111222,99999999' 
WAVCIS,ioos:station:WAVCIS:CSI15:1,2010-04-06T06:00:00Z,28.8332,-90.8320,10.0,8.28,103.0,,'11111222,11111222,99999999' 
WAVCIS,ioos:station:WAVCIS:CSI15:1,2010-04-06T07:00:00Z,28.8332,-90.8320,10.0,7.89,107.0,,'11111222,11111222,99999999' 
WAVCIS,ioos:station:WAVCIS:CSI15:1,2010-04-06T08:00:00Z,28.8332,-90.8320,10.0,7.62,118.0,,'11111222,11111222,99999999' 
WAVCIS,ioos:station:WAVCIS:CSI15:1,2010-04-06T09:00:00Z,28.8332,-90.8320,10.0,5.556,118.0,,'11111222,11111222,99999999' 
WAVCIS,ioos:station:WAVCIS:CSI15:1,2010-04-06T10:00:00Z,28.8332,-90.8320,10.0,5.486,126.0,,'11111222,11111222,99999999' 
WAVCIS,ioos:station:WAVCIS:CSI15:1,2010-04-06T11:00:00Z,28.8332,-90.8320,10.0,5.091,117.0,,'11111222,11111222,99999999' 
WAVCIS,ioos:station:WAVCIS:CSI15:1,2010-04-06T12:00:00Z,28.8332,-90.8320,10.0,6.04,110.0,,'11111222,11111222,99999999' 
WAVCIS,ioos:station:WAVCIS:CSI15:1,2010-04-06T13:00:00Z,28.8332,-90.8320,10.0,6.986,122.0,,'11111222,11111222,99999999' 
WAVCIS,ioos:station:WAVCIS:CSI15:1,2010-04-06T14:00:00Z,28.8332,-90.8320,10.0,7.34,118.0,,'11111222,11111222,99999999' 
WAVCIS,ioos:station:WAVCIS:CSI15:1,2010-04-06T15:00:00Z,28.8332,-90.8320,10.0,7.53,113.0,,'11111222,11111222,99999999' 
WAVCIS,ioos:station:WAVCIS:CSI15:1,2010-04-06T16:00:00Z,28.8332,-90.8320,10.0,7.64,118.0,,'11111222,11111222,99999999' 
WAVCIS,ioos:station:WAVCIS:CSI15:1,2010-04-06T17:00:00Z,28.8332,-90.8320,10.0,6.444,121.0,,'11111222,11111222,99999999' 
WAVCIS,ioos:station:WAVCIS:CSI15:1,2010-04-06T18:00:00Z,28.8332,-90.8320,10.0,4.47,125.0,,'11111222,11111222,99999999' 
WAVCIS,ioos:station:WAVCIS:CSI15:1,2010-04-06T19:00:00Z,28.8332,-90.8320,10.0,4.851,108.0,,'11111222,11111222,99999999' 
WAVCIS,ioos:station:WAVCIS:CSI15:1,2010-04-06T20:00:00Z,28.8332,-90.8320,10.0,5.328,102.0,,'11111222,11111222,99999999' 
WAVCIS,ioos:station:WAVCIS:CSI15:1,2010-04-06T21:00:00Z,28.8332,-90.8320,10.0,5.433,100.0,,'11111222,11111222,99999999' 
WAVCIS,ioos:station:WAVCIS:CSI15:1,2010-04-06T22:00:00Z,28.8332,-90.8320,10.0,5.563,100.0,,'11111222,11111222,99999999' 
WAVCIS,ioos:station:WAVCIS:CSI15:1,2010-04-06T23:00:00Z,28.8332,-90.8320,10.0,6.799,97.0,,'11111222,11111222,99999999' 
WAVCIS,ioos:station:WAVCIS:CSI15:1,2010-04-07T00:00:00Z,28.8332,-90.8320,10.0,7.3,103.0,,'11111222,11111222,99999999' 
WAVCIS,ioos:station:WAVCIS:CSI15:1,2010-04-07T01:00:00Z,28.8332,-90.8320,10.0,7.24,104.0,,'11111222,11111222,99999999' 
WAVCIS,ioos:station:WAVCIS:CSI15:1,2010-04-07T02:00:00Z,28.8332,-90.8320,10.0,7.02,104.0,,'11111222,11111222,99999999' 
WAVCIS,ioos:station:WAVCIS:CSI15:1,2010-04-07T03:00:00Z,28.8332,-90.8320,10.0,7.92,107.0,,'11111222,11111222,99999999' 
WAVCIS,ioos:station:WAVCIS:CSI15:1,2010-04-07T04:00:00Z,28.8332,-90.8320,10.0,8.57,111.0,,'11111222,11111222,99999999' 
WAVCIS,ioos:station:WAVCIS:CSI15:1,2010-04-07T05:00:00Z,28.8332,-90.8320,10.0,9.14,115.0,,'11111222,11111222,99999999' 
WAVCIS,ioos:station:WAVCIS:CSI15:1,2010-04-07T06:00:00Z,28.8332,-90.8320,10.0,9.99,116.0,,'11111222,11111222,99999999' 
WAVCIS,ioos:station:WAVCIS:CSI15:1,2010-04-07T07:00:00Z,28.8332,-90.8320,10.0,10.0,120.0,,'11111222,11111222,99999999' 
WAVCIS,ioos:station:WAVCIS:CSI15:1,2010-04-07T08:00:00Z,28.8332,-90.8320,10.0,7.64,127.0,,'11111222,11111222,99999999' 
WAVCIS,ioos:station:WAVCIS:CSI15:1,2010-04-07T09:00:00Z,28.8332,-90.8320,10.0,6.989,127.0,,'11111222,11111222,99999999' 
WAVCIS,ioos:station:WAVCIS:CSI15:1,2010-04-07T10:00:00Z,28.8332,-90.8320,10.0,5.316,127.0,,'11111222,11111222,99999999' 
WAVCIS,ioos:station:WAVCIS:CSI15:1,2010-04-07T11:00:00Z,28.8332,-90.8320,10.0,5.525,114.0,,'11111222,11111222,99999999' 
WAVCIS,ioos:station:WAVCIS:CSI15:1,2010-04-07T12:00:00Z,28.8332,-90.8320,10.0,5.905,114.0,,'11111222,11111222,99999999' 
WAVCIS,ioos:station:WAVCIS:CSI15:1,2010-04-07T13:00:00Z,28.8332,-90.8320,10.0,8.37,114.0,,'11111222,11111222,99999999' 
WAVCIS,ioos:station:WAVCIS:CSI15:1,2010-04-07T14:00:00Z,28.8332,-90.8320,10.0,8.27,116.0,,'11111222,11111222,99999999' 
WAVCIS,ioos:station:WAVCIS:CSI15:1,2010-04-07T15:00:00Z,28.8332,-90.8320,10.0,6.491,120.0,,'11111222,11111222,99999999' 
WAVCIS,ioos:station:WAVCIS:CSI15:1,2010-04-07T16:00:00Z,28.8332,-90.8320,10.0,7.38,111.0,,'11111222,11111222,99999999' 
WAVCIS,ioos:station:WAVCIS:CSI15:1,2010-04-07T17:00:00Z,28.8332,-90.8320,10.0,6.474,102.0,,'11111222,11111222,99999999' 
WAVCIS,ioos:station:WAVCIS:CSI15:1,2010-04-07T18:00:00Z,28.8332,-90.8320,10.0,5.327,100.0,,'11111222,11111222,99999999' 
WAVCIS,ioos:station:WAVCIS:CSI15:1,2010-04-07T19:00:00Z,28.8332,-90.8320,10.0,4.694,94.0,,'11111222,11111222,99999999' 
WAVCIS,ioos:station:WAVCIS:CSI15:1,2010-04-07T20:00:00Z,28.8332,-90.8320,10.0,4.265,96.0,,'11111222,11111222,99999999' 
WAVCIS,ioos:station:WAVCIS:CSI15:1,2010-04-07T21:00:00Z,28.8332,-90.8320,10.0,6.223,105.0,,'11111222,11111222,99999999' 
WAVCIS,ioos:station:WAVCIS:CSI15:1,2010-04-07T22:00:00Z,28.8332,-90.8320,10.0,5.936,108.0,,'11111222,11111222,99999999' 
WAVCIS,ioos:station:WAVCIS:CSI15:1,2010-04-07T23:00:00Z,28.8332,-90.8320,10.0,6.448,105.0,,'11111222,11111222,99999999' 
WAVCIS,ioos:station:WAVCIS:CSI15:1,2010-04-08T00:00:00Z,28.8332,-90.8320,10.0,7.76,108.0,,'11111222,11111222,99999999' 
WAVCIS,ioos:station:WAVCIS:CSI15:1,2010-04-08T01:00:00Z,28.8332,-90.8320,10.0,8.61,116.0,,'11111222,11111222,99999999' 
WAVCIS,ioos:station:WAVCIS:CSI15:1,2010-04-08T02:00:00Z,28.8332,-90.8320,10.0,9.2,125.0,,'11111222,11111222,99999999' 
WAVCIS,ioos:station:WAVCIS:CSI15:1,2010-04-08T03:00:00Z,28.8332,-90.8320,10.0,7.93,125.0,,'11111222,11111222,99999999' 
WAVCIS,ioos:station:WAVCIS:CSI15:1,2010-04-08T04:00:00Z,28.8332,-90.8320,10.0,7.7,133.0,,'11111222,11111222,99999999' 
WAVCIS,ioos:station:WAVCIS:CSI15:1,2010-04-08T05:00:00Z,28.8332,-90.8320,10.0,8.32,133.0,,'11111222,11111222,99999999' 
WAVCIS,ioos:station:WAVCIS:CSI15:1,2010-04-08T06:00:00Z,28.8332,-90.8320,10.0,6.789,147.0,,'11111222,11111222,99999999' 
WAVCIS,ioos:station:WAVCIS:CSI15:1,2010-04-08T07:00:00Z,28.8332,-90.8320,10.0,4.834,161.0,,'11111222,11111222,99999999' 
WAVCIS,ioos:station:WAVCIS:CSI15:1,2010-04-08T08:00:00Z,28.8332,-90.8320,10.0,6.103,176.0,,'11111222,11111222,99999999' 
WAVCIS,ioos:station:WAVCIS:CSI15:1,2010-04-08T09:00:00Z,28.8332,-90.8320,10.0,9.76,203.0,,'11111222,11111222,99999999' 
WAVCIS,ioos:station:WAVCIS:CSI15:1,2010-04-08T10:00:00Z,28.8332,-90.8320,10.0,8.97,196.0,,'11111222,11111222,99999999' 
WAVCIS,ioos:station:WAVCIS:CSI15:1,2010-04-08T11:00:00Z,28.8332,-90.8320,10.0,10.34,300.0,,'11111222,11111222,99999999' 
WAVCIS,ioos:station:WAVCIS:CSI15:1,2010-04-08T12:00:00Z,28.8332,-90.8320,10.0,12.05,309.0,,'11111222,11111222,99999999' 
WAVCIS,ioos:station:WAVCIS:CSI15:1,2010-04-08T13:00:00Z,28.8332,-90.8320,10.0,11.02,303.0,,'11111222,11111222,99999999' 
WAVCIS,ioos:station:WAVCIS:CSI15:1,2010-04-08T14:00:00Z,28.8332,-90.8320,10.0,8.52,309.0,,'11111222,11111222,99999999' 
WAVCIS,ioos:station:WAVCIS:CSI15:1,2010-04-08T15:00:00Z,28.8332,-90.8320,10.0,9.46,310.0,,'11111222,11111222,99999999' 
WAVCIS,ioos:station:WAVCIS:CSI15:1,2010-04-08T16:00:00Z,28.8332,-90.8320,10.0,8.82,297.0,,'11111222,11111222,99999999' 
WAVCIS,ioos:station:WAVCIS:CSI15:1,2010-04-08T17:00:00Z,28.8332,-90.8320,10.0,8.16,299.0,,'11111222,11111222,99999999' 
WAVCIS,ioos:station:WAVCIS:CSI15:1,2010-04-08T18:00:00Z,28.8332,-90.8320,10.0,6.338,282.0,,'11111222,11111222,99999999' 
WAVCIS,ioos:station:WAVCIS:CSI15:1,2010-04-08T19:00:00Z,28.8332,-90.8320,10.0,7.85,272.0,,'11111222,11111222,99999999' 
WAVCIS,ioos:station:WAVCIS:CSI15:1,2010-04-08T20:00:00Z,28.8332,-90.8320,10.0,8.64,274.0,,'11111222,11111222,99999999' 
WAVCIS,ioos:station:WAVCIS:CSI15:1,2010-04-08T21:00:00Z,28.8332,-90.8320,10.0,6.28,269.0,,'11111222,11111222,99999999' 
WAVCIS,ioos:station:WAVCIS:CSI15:1,2010-04-08T22:00:00Z,28.8332,-90.8320,10.0,9.62,273.0,,'11111222,11111222,99999999' 
WAVCIS,ioos:station:WAVCIS:CSI15:1,2010-04-08T23:00:00Z,28.8332,-90.8320,10.0,9.29,282.0,,'11111222,11111222,99999999' 
WAVCIS,ioos:station:WAVCIS:CSI15:1,2010-04-09T00:00:00Z,28.8332,-90.8320,10.0,9.29,284.0,,'11111222,11111222,99999999' 
WAVCIS,ioos:station:WAVCIS:CSI15:1,2010-04-09T01:00:00Z,28.8332,-90.8320,10.0,9.11,310.0,,'11111222,11111222,99999999' 
WAVCIS,ioos:station:WAVCIS:CSI15:1,2010-04-09T02:00:00Z,28.8332,-90.8320,10.0,8.39,320.0,,'11111222,11111222,99999999' 
WAVCIS,ioos:station:WAVCIS:CSI15:1,2010-04-09T03:00:00Z,28.8332,-90.8320,10.0,9.07,339.0,,'11111222,11111222,99999999' 
WAVCIS,ioos:station:WAVCIS:CSI15:1,2010-04-09T04:00:00Z,28.8332,-90.8320,10.0,9.39,341.0,,'11111222,11111222,99999999' 
WAVCIS,ioos:station:WAVCIS:CSI15:1,2010-04-09T05:00:00Z,28.8332,-90.8320,10.0,10.37,336.0,,'11111222,11111222,99999999' 